Flight Track Log - Related Links

Times and Time Zones

All times are in EDT time to prevent confusion due to time zone crossing. See the AAY842 flight status page for this flight to view local times or setup timezone preferences in your user account.

Time Position Orientation Groundspeed Altitude Reporting Facility
EDT Latitude Longitude Course Direction KTS MPH feet Rate Location/Type
Mon 03:54:46 PM 27.9000 -82.6833 180° South 150 173 800  Level Tampa TRACON
Mon 03:55:34 PM 27.8500 -82.6833 180° South 179 206 2,300 1,889 Climbing Tampa TRACON
Mon 03:56:34 PM 27.8500 -82.7500 270° West 258 297 4,200 2,254 Climbing Tampa TRACON
Mon 03:58:59 PM 28.0247 -82.7233 North 276 318 10,000 2,107 Climbing Jacksonville Center
Mon 03:59:59 PM 28.1144 -82.6972 14° North 300 345 11,400 1,950 Climbing Jacksonville Center
Mon 04:00:59 PM 28.2164 -82.6689 14° North 338 389 13,900 1,982 Climbing Jacksonville Center
Mon 04:07:15 PM 28.9202 -82.6777 358° North 431 496 25,800 1,849 Climbing FlightAware ADS-B
Mon 04:08:17 PM 29.0217 -82.6822 358° North 434 499 27,400 1,487 Climbing FlightAware ADS-B
Mon 04:09:12 PM 29.1633 -82.6864 359° North 445 512 28,700 1,069 Climbing FlightAware ADS-B
Mon 04:09:58 PM 29.2508 -82.6886 359° North 451 519 29,200 1,039 Climbing FlightAware ADS-B
Mon 04:13:03 PM 29.6493 -82.7010 359° North 455 524 32,700 1,098 Climbing FlightAware ADS-B
Mon 04:13:42 PM 29.7330 -82.7038 358° North 457 526 33,300 1,024 Climbing FlightAware ADS-B
Mon 04:14:25 PM 29.8236 -82.7069 358° North 454 522 34,100 940 Climbing FlightAware ADS-B
Mon 04:15:05 PM 29.9076 -82.7100 358° North 455 524 34,600 846 Climbing FlightAware ADS-B
Mon 04:15:43 PM 29.9870 -82.7119 North 456 525 35,200 1,013 Climbing FlightAware ADS-B
Mon 04:16:22 PM 30.0681 -82.6867 18° North 458 527 35,900 815 Climbing FlightAware ADS-B
Mon 04:17:04 PM 30.1536 -82.6548 18° North 458 527 36,300 578 Climbing FlightAware ADS-B
Mon 04:17:45 PM 30.2365 -82.6242 18° North 459 528 36,700 608 Climbing FlightAware ADS-B
Mon 04:18:23 PM 30.3138 -82.5955 18° North 460 529 37,100 348 Climbing FlightAware ADS-B
Mon 04:18:54 PM 30.3759 -82.5724 18° North 462 532 37,100  Level FlightAware ADS-B
Mon 04:19:44 PM 30.4788 -82.5338 18° North 457 526 37,100  Level FlightAware ADS-B
Mon 04:20:44 PM 30.6000 -82.4886 18° North 460 529 37,100 -44 Level FlightAware ADS-B
Mon 04:21:59 PM 30.7439 -82.4381 18° North 458 527 37,000 -44 Descending Jacksonville Center
Mon 04:22:59 PM 30.8647 -82.3939 17° North 458 527 37,000  Level Jacksonville Center
Mon 04:23:59 PM 30.9836 -82.3472 19° North 458 527 37,000  Level Jacksonville Center
Mon 04:24:59 PM 31.1086 -82.3006 18° North 458 527 37,000  Level Jacksonville Center
Mon 04:25:59 PM 31.2275 -82.2561 18° North 453 521 37,000  Level Jacksonville Center
Mon 04:26:59 PM 31.3483 -82.2114 18° North 453 521 37,000  Level Jacksonville Center
Mon 04:27:59 PM 31.4650 -82.1667 18° North 441 507 37,000  Level Jacksonville Center
Mon 04:28:59 PM 31.5858 -82.1219 17° North 446 513 37,000 50 Level Jacksonville Center
Mon 04:29:59 PM 31.6942 -82.0769 19° North 446 513 37,100 50 Climbing Jacksonville Center
Mon 04:30:59 PM 31.8253 -82.0269 18° North 446 513 37,100 -50 Level Jacksonville Center
Mon 04:31:59 PM 31.9442 -81.9817 18° North 445 512 37,000 -50 Descending Jacksonville Center
Mon 04:32:59 PM 32.0503 -81.9342 21° North 445 512 37,000  Level Jacksonville Center
Mon 04:33:59 PM 32.1811 -81.8714 22° Northeast 450 518 37,000 50 Level Jacksonville Center
Mon 04:34:59 PM 32.2997 -81.8161 21° North 450 518 37,100 50 Climbing Jacksonville Center
Mon 04:35:59 PM 32.4058 -81.7631 23° Northeast 450 518 37,100  Level Jacksonville Center
Mon 04:36:59 PM 32.5367 -81.7022 21° North 449 517 37,100  Level Jacksonville Center
Mon 04:37:59 PM 32.6406 -81.6517 22° Northeast 449 517 37,100 -50 Level Jacksonville Center
Mon 04:38:59 PM 32.7694 -81.5906 22° Northeast 449 517 37,000 -50 Descending Jacksonville Center
Mon 04:39:59 PM 32.8858 -81.5344 22° Northeast 449 517 37,000  Level Jacksonville Center
Mon 04:45:29 PM 33.5365 -81.2128 22° Northeast 461 531 37,000 15 Level FlightAware ADS-B
Mon 04:46:31 PM 33.6590 -81.1521 22° Northeast 461 531 37,100 57 Climbing FlightAware ADS-B
Mon 04:47:15 PM 33.7459 -81.1091 22° Northeast 461 531 37,100  Level FlightAware ADS-B
Mon 04:47:45 PM 33.8060 -81.0793 22° Northeast 461 531 37,100 -100 Level FlightAware ADS-B
Mon 04:48:15 PM 33.8650 -81.0502 22° Northeast 462 532 37,000 -100 Descending FlightAware ADS-B
Mon 04:48:45 PM 33.9240 -81.0217 22° Northeast 463 533 37,000  Level FlightAware ADS-B
Mon 04:49:25 PM 34.0041 -80.9837 22° Northeast 462 532 37,000 69 Level FlightAware ADS-B
Mon 04:50:12 PM 34.0967 -80.9392 22° Northeast 460 529 37,100  Climbing FlightAware ADS-B
Mon 04:51:04 PM 34.1999 -80.8893 22° Northeast 456 525 37,000 -62 Descending FlightAware ADS-B
Mon 04:51:49 PM 34.2888 -80.8464 22° Northeast 455 524 37,000  Level FlightAware ADS-B
Mon 04:52:34 PM 34.3759 -80.8043 22° Northeast 455 524 37,000  Level FlightAware ADS-B
Mon 04:53:08 PM 34.4415 -80.7724 22° Northeast 454 522 37,000  Level FlightAware ADS-B
Mon 04:53:43 PM 34.5099 -80.7392 22° Northeast 456 525 37,000 81 Level FlightAware ADS-B
Mon 04:54:22 PM 34.5877 -80.7013 22° Northeast 456 525 37,100 71 Climbing FlightAware ADS-B
Mon 04:55:07 PM 34.6756 -80.6585 22° Northeast 457 526 37,100  Level FlightAware ADS-B
Mon 04:55:38 PM 34.7361 -80.6289 22° Northeast 457 526 37,100 -79 Level FlightAware ADS-B
Mon 04:56:23 PM 34.8240 -80.5857 22° Northeast 459 528 37,000 -49 Descending FlightAware ADS-B
Mon 04:57:41 PM 34.9708 -80.5156 22° Northeast 450 518 37,000 43 Level Atlanta Center
Mon 04:58:41 PM 35.0900 -80.4547 23° Northeast 450 518 37,100  Climbing Atlanta Center
Mon 04:59:41 PM 35.2094 -80.3961 22° Northeast 450 518 37,000 -50 Descending Atlanta Center
Mon 05:00:41 PM 35.3306 -80.3347 22° Northeast 456 525 37,000 50 Level Atlanta Center
Mon 05:01:41 PM 35.4478 -80.2786 21° North 456 525 37,100  Climbing Atlanta Center
Mon 05:02:41 PM 35.5650 -80.2169 23° Northeast 456 525 37,000 -50 Descending Atlanta Center
Mon 05:03:41 PM 35.6594 -80.1717 21° North 451 519 37,000  Level Atlanta Center
Mon 05:04:41 PM 35.7928 -80.1039 22° Northeast 456 525 37,000 50 Level Atlanta Center
Mon 05:05:41 PM 35.9242 -80.0386 22° Northeast 461 531 37,100 31 Climbing Atlanta Center
Mon 05:07:54 PM 36.1644 -79.8861 27° Northeast 460 529 37,100 -31 Level Washington Center
Mon 05:08:55 PM 36.2761 -79.8019 31° Northeast 460 529 37,000 -50 Descending Washington Center
Mon 05:09:53 PM 36.3814 -79.7097 35° Northeast 467 537 37,000  Level Washington Center
Mon 05:10:53 PM 36.4886 -79.6250 32° Northeast 461 531 37,000 49 Level Washington Center
Mon 05:11:55 PM 36.6000 -79.5400 31° Northeast 456 525 37,100 50 Climbing Washington Center
Mon 05:12:53 PM 36.7200 -79.4450 32° Northeast 461 531 37,100  Level Washington Center
Mon 05:13:53 PM 36.8292 -79.3572 33° Northeast 461 531 37,100 -50 Level Washington Center
Mon 05:14:54 PM 36.9342 -79.2714 33° Northeast 461 531 37,000  Descending Washington Center
Mon 05:19:31 PM 37.4417 -78.8634 32° Northeast 464 534 37,100 19 Climbing FlightAware ADS-B
Mon 05:20:13 PM 37.5172 -78.8018 33° Northeast 465 535 37,100  Level FlightAware ADS-B
Mon 05:20:57 PM 37.5978 -78.7359 33° Northeast 463 533 37,100  Level FlightAware ADS-B
Mon 05:21:37 PM 37.6695 -78.6771 33° Northeast 460 529 37,100 -72 Level FlightAware ADS-B
Mon 05:22:20 PM 37.7457 -78.6144 33° Northeast 460 529 37,000 -75 Descending FlightAware ADS-B
Mon 05:22:57 PM 37.8115 -78.5602 33° Northeast 460 529 37,000 82 Level FlightAware ADS-B
Mon 05:23:33 PM 37.8774 -78.5059 33° Northeast 460 529 37,100 87 Climbing FlightAware ADS-B
Mon 05:24:06 PM 37.9331 -78.4598 33° Northeast 459 528 37,100 -83 Level FlightAware ADS-B (KCHO)
Mon 05:24:45 PM 38.0045 -78.4005 33° Northeast 459 528 37,000  Descending FlightAware ADS-B (KCHO)
Mon 05:25:15 PM 38.0578 -78.3563 33° Northeast 459 528 37,100 85 Climbing FlightAware ADS-B (KCHO)
Mon 05:25:56 PM 38.1305 -78.2958 33° Northeast 460 529 37,100  Level FlightAware ADS-B (KCHO)
Mon 05:26:36 PM 38.2010 -78.2369 33° Northeast 458 527 37,100  Level FlightAware ADS-B (KCHO)
Mon 05:27:16 PM 38.2727 -78.1769 33° Northeast 455 524 37,100  Level FlightAware ADS-B (KCHO)
Mon 05:27:58 PM 38.3468 -78.1147 33° Northeast 453 521 37,100 -67 Level FlightAware ADS-B
Mon 05:28:46 PM 38.4302 -78.0446 34° Northeast 454 522 37,000  Descending FlightAware ADS-B (KCHO)
Mon 05:29:02 PM 38.4588 -78.0205 33° Northeast 452 520 37,100 128 Climbing FlightAware ADS-B (KDAA)
Mon 05:29:33 PM 38.5117 -77.9758 33° Northeast 451 519 37,100  Level FlightAware ADS-B (KDAA)
Mon 05:29:38 PM 38.5200 -77.9689 33° Northeast 450 518 37,100  Level FlightAware ADS-B
Mon 05:30:02 PM 38.5607 -77.9345 33° Northeast 448 516 37,100  Level FlightAware ADS-B (KDAA)
Mon 05:30:21 PM 38.5947 -77.9057 33° Northeast 447 514 37,100 -176 Level FlightAware ADS-B
Mon 05:30:36 PM 38.6195 -77.8866 29° Northeast 446 513 37,000 -150 Descending FlightAware ADS-B (KDAA)
Mon 05:31:01 PM 38.6670 -77.8558 25° Northeast 443 510 37,000  Level FlightAware ADS-B
Mon 05:31:12 PM 38.6893 -77.8437 21° North 442 509 37,000  Level FlightAware ADS-B (KDAA)
Mon 05:31:35 PM 38.7321 -77.8234 19° North 441 507 37,000  Level FlightAware ADS-B
Mon 05:31:52 PM 38.7668 -77.8073 20° North 442 509 37,000  Level FlightAware ADS-B (KDAA)
Mon 05:32:22 PM 38.8238 -77.7805 20° North 444 511 37,000 -400 Level FlightAware ADS-B (KDAA)
Mon 05:32:52 PM 38.8821 -77.7530 20° North 445 512 36,600 -857 Descending FlightAware ADS-B (KDAA)
Mon 05:32:57 PM 38.8900 -77.7493 20° North 445 512 36,500 -968 Descending FlightAware ADS-B
Mon 05:33:23 PM 38.9403 -77.7256 20° North 448 516 36,100 -982 Descending FlightAware ADS-B (KDAA)
Mon 05:33:52 PM 38.9990 -77.6979 20° North 448 516 35,600 -1,017 Descending FlightAware ADS-B (KDAA)
Mon 05:34:22 PM 39.0579 -77.6701 20° North 449 517 35,100 -894 Descending FlightAware ADS-B (KDAA)
Mon 05:34:39 PM 39.0877 -77.6560 20° North 445 512 34,900 -800 Descending FlightAware ADS-B
Mon 05:34:52 PM 39.1159 -77.6427 20° North 450 518 34,700 -977 Descending FlightAware ADS-B (KDAA)
Mon 05:35:22 PM 39.1749 -77.6148 20° North 449 517 34,200 -1,231 Descending FlightAware ADS-B (KDAA)
Mon 05:35:31 PM 39.1890 -77.6080 20° North 450 518 33,900 -1,000 Descending FlightAware ADS-B
Mon 05:35:52 PM 39.2286 -77.5892 20° North 452 520 33,700 -824 Descending FlightAware ADS-B (KDAA)
Mon 05:36:22 PM 39.2917 -77.5592 20° North 450 518 33,200 -667 Descending FlightAware ADS-B (KDAA)
Mon 05:36:46 PM 39.3382 -77.5371 20° North 450 518 33,100 -120 Descending FlightAware ADS-B
Mon 05:37:12 PM 39.3827 -77.5158 20° North 448 516 33,100  Level FlightAware ADS-B (KDAA)
Mon 05:37:41 PM 39.4301 -77.4932 20° North 447 514 33,100  Level FlightAware ADS-B (KDAA)
Mon 05:37:46 PM 39.4555 -77.4811 20° North 448 516 33,100  Level FlightAware ADS-B
Mon 05:38:11 PM 39.4971 -77.4611 20° North 449 517 33,100 -150 Level FlightAware ADS-B (KDAA)
Mon 05:38:26 PM 39.5301 -77.4453 20° North 452 520 33,000 -207 Descending FlightAware ADS-B
Mon 05:38:40 PM 39.5453 -77.4403 21° North 437 503 33,000 194 Level New York Center
Mon 05:38:57 PM 39.5917 -77.4158 20° North 452 520 33,100 214 Climbing FlightAware ADS-B
Mon 05:39:08 PM 39.6126 -77.4057 20° North 452 520 33,100  Level FlightAware ADS-B (KDAA)
Mon 05:39:36 PM 39.6681 -77.3790 20° North 451 519 33,100  Level FlightAware ADS-B
Mon 05:40:06 PM 39.7300 -77.3491 21° North 449 517 33,100  Level FlightAware ADS-B
Mon 05:40:48 PM 39.8118 -77.3095 21° North 446 513 33,100 -47 Level FlightAware ADS-B
Mon 05:42:13 PM 39.9657 -77.2349 21° North 445 512 33,000 -476 Descending FlightAware ADS-B (LFML / MRS)
Mon 05:43:57 PM 40.1638 -77.1393 20° North 448 516 31,600 -727 Descending FlightAware ADS-B (LFML / MRS)
Mon 05:44:00 PM 40.1585 -77.1381 21° North  Level FlightAware Approximate
Mon 05:44:58 PM 40.2556 -77.0945 20° North 444 511 31,000  Level FlightAware ADS-B (LFML / MRS)
Mon 05:46:44 PM 40.4954 -76.9769 21° North 434 499 30,000 -837 Descending FlightAware ADS-B (LFML / MRS)
Mon 05:51:18 PM 40.9980 -76.7280 20° North 410 472 25,700 -938 Descending FlightAware ADS-B
Mon 05:52:36 PM 41.1330 -76.6600 20° North 401 461 24,500 -964 Descending FlightAware ADS-B
Mon 05:53:10 PM 41.1930 -76.6300 20° North 399 459 23,900 -955 Descending FlightAware ADS-B
Mon 05:54:04 PM 41.2850 -76.5840 20° North 398 458 23,100 -400 Descending FlightAware ADS-B
Mon 05:55:25 PM 41.4240 -76.5140 21° North 395 455 23,000 -53 Descending FlightAware ADS-B
Mon 05:55:58 PM 41.4740 -76.4880 18° North 391 450 23,000  Level FlightAware ADS-B
Mon 05:56:27 PM 41.5290 -76.4740 North 381 438 23,000 -554 Level FlightAware ADS-B
Mon 05:57:03 PM 41.5930 -76.4640 North 373 429 22,400 -1,125 Descending FlightAware ADS-B
Mon 05:58:19 PM 41.7160 -76.4440 North 361 415 20,900 -1,269 Descending FlightAware ADS-B
Mon 05:58:47 PM 41.7680 -76.4360 North 359 413 20,200 -1,437 Descending FlightAware ADS-B
Mon 05:59:30 PM 41.8360 -76.4250 North 347 399 19,200 -1,610 Descending FlightAware ADS-B
Mon 06:00:50 PM 41.9640 -76.4040 North 341 392 16,900 -1,759 Descending FlightAware ADS-B
Mon 06:01:26 PM 42.0200 -76.3950 North 339 390 15,800 -1,155 Descending FlightAware ADS-B
Mon 06:03:57 PM 42.2450 -76.3590 North 320 368 13,300 -947 Descending FlightAware ADS-B
Mon 06:04:55 PM 42.3310 -76.3450 North 321 369 12,500 -742 Descending FlightAware ADS-B
Mon 06:05:26 PM 42.3700 -76.3390 North 318 366 12,200 -732 Descending FlightAware ADS-B
Mon 06:06:17 PM 42.4500 -76.3260 North 313 360 11,500 -786 Descending FlightAware ADS-B
Mon 06:06:50 PM 42.4960 -76.3190 North 316 364 11,100 -522 Descending FlightAware ADS-B
Mon 06:07:26 PM 42.5510 -76.3100 North 314 361 10,900 -171 Descending FlightAware ADS-B
Mon 06:08:00 PM 42.5950 -76.3020 North 314 361 10,900 -164 Level FlightAware ADS-B
Mon 06:08:39 PM 42.6550 -76.2930 North 303 349 10,700 -1,049 Descending FlightAware ADS-B
Mon 06:09:43 PM 42.7339 -76.2800 124° Southeast 288 331 9,100 -1,790 Descending Boston Center
Mon 06:10:43 PM 42.8194 -76.2667 North 284 327 7,000 -1,417 Descending Boston Center
Mon 06:11:50 PM 42.9019 -76.2606 North 274 315 6,100 -891 Descending Boston Center
Mon 06:12:51 PM 42.9694 -76.2531 North 229 264 5,100 -1,190 Descending Boston Center
Mon 06:13:00 PM 43.1269 -76.2000 North  Level FlightAware Approximate
Mon 06:13:51 PM 43.0286 -76.2456 North 207 238 3,700  Level Boston Center
Mon 06:14:00 PM 43.1112 -76.1063 124° Southeast  Level Estimated
Mon 06:14:52 PM 43.0783 -76.2292 14° North 173 199 2,500  Level Boston Center
Mon 06:15:00 PM 43.1112 -76.1063 124° Southeast  Level Estimated
Mon 06:15:53 PM 43.1053 -76.1850 50° Northeast 140 161 1,500  Level Boston Center

Login

Don't have an account? Register now (free) for customized features, flight alerts, and more!